Flag for India Weather past 2 weeks in Maraimalai Nagar, Tamil Nadu, India

Now
86 °F

Passing clouds.


Feels Like: 99 °F
Forecast: 82 / 99 °F
Wind: 9 mph from South

Location: Madras / Minambakkam

Current Time: May 6, 2015 at 11:14:06 PM

Latest Report: May 6, 2015 at 10:40 PM


Visibility: 4 mi

Pressure: 29.77 "Hg

Humidity: 79%

Dew point: 79 °F

Location of Maraimalai NagarLocation

Historic Weather in Maraimalai Nagar — Graph

°F

Maraimalai Nagar temperature yesterday

Maximum temperature yesterday: 95 °F (at 12:10 PM)
Minimum temperature yesterday: 82 °F (at 3:10 AM)
Average temperature yesterday: 88 °F

Past Weeks' High & Low Weather Summary

 TemperatureHumidityPressure
High100 °F (May 2, 12:10 PM)94% (Apr 22, 4:40 AM)29.89 "Hg (Apr 22, 4:40 AM)
Low75 °F (Apr 24, 11:10 PM)44% (Apr 30, 12:40 PM)29.65 "Hg (May 2, 3:40 PM)
Average88 °F73%29.78 "Hg
* Reported Apr 21 9:40 PM — May 6 9:40 PM, Maraimalai Nagar, Weather by CustomWeather, © 2015

Note: Actual official high and low records may vary slightly from our data, if they occured in-between our weather recording intervals... More about our weather records

Advertising

Maraimalai Nagar weather history for previous 24 hours

 ConditionsComfort  
Time TempWeatherWind HumidityBarometerVisibility
9:40 PM
Wed, May 6
86 °FPassing clouds.9 mph79%29.77 "Hg4 mi
9:10 PM86 °FPassing clouds.7 mph75%29.77 "Hg4 mi
8:40 PM86 °FPassing clouds.8 mph75%29.74 "Hg4 mi
8:10 PM86 °FPassing clouds.9 mph75%29.74 "Hg4 mi
7:40 PM88 °FPassing clouds.9 mph70%29.74 "Hg4 mi
7:10 PM88 °FPassing clouds.14 mph70%29.71 "Hg4 mi
6:40 PM88 °FScattered clouds.13 mph70%29.68 "Hg4 mi
6:10 PM88 °FScattered clouds.9 mph70%29.68 "Hg4 mi
5:40 PM90 °FScattered clouds.13 mph67%29.68 "Hg4 mi
5:10 PM90 °FScattered clouds.9 mph67%29.68 "Hg4 mi
4:40 PM90 °FScattered clouds.12 mph67%29.68 "Hg4 mi
4:10 PM91 °FScattered clouds.10 mph63%29.68 "Hg4 mi
3:40 PM91 °FScattered clouds.12 mph63%29.68 "Hg4 mi
3:10 PM93 °FScattered clouds.9 mph59%29.68 "Hg5 mi
2:40 PM93 °FScattered clouds.12 mph59%29.68 "Hg5 mi
2:10 PM95 °FScattered clouds.13 mph56%29.71 "Hg5 mi
1:40 PM95 °FScattered clouds.9 mph56%29.71 "Hg5 mi
1:10 PM95 °FScattered clouds.9 mph56%29.71 "Hg5 mi
12:40 PM95 °FScattered clouds.9 mph56%29.74 "Hg5 mi
12:10 PM95 °FScattered clouds.9 mph56%29.74 "Hg5 mi
11:40 AM93 °FScattered clouds.14 mph56%29.74 "Hg5 mi
11:10 AM93 °FScattered clouds.12 mph56%29.77 "Hg4 mi
10:40 AM93 °FScattered clouds.12 mph59%29.77 "Hg4 mi
10:10 AM91 °FScattered clouds.9 mph63%29.77 "Hg4 mi
9:40 AM90 °FScattered clouds.9 mph67%29.80 "Hg4 mi
9:10 AM90 °FScattered clouds.9 mph67%29.80 "Hg4 mi
8:40 AM90 °FScattered clouds.6 mph71%29.80 "Hg4 mi
8:10 AM88 °FPassing clouds.5 mph75%29.80 "Hg4 mi
7:40 AM86 °FPassing clouds.6 mph79%29.77 "Hg4 mi
7:10 AM84 °FPassing clouds.3 mph84%29.77 "Hg4 mi
6:40 AM82 °FPassing clouds.3 mph89%29.77 "Hg4 mi
6:10 AM81 °FPassing clouds.3 mph94%29.74 "Hg4 mi
5:40 AM81 °FPassing clouds.No wind89%29.74 "Hg4 mi
5:10 AM82 °FPassing clouds.No wind84%29.74 "Hg4 mi
4:40 AM82 °FPassing clouds.No wind89%29.74 "Hg4 mi
4:10 AM82 °FPassing clouds.No wind84%29.74 "Hg4 mi
3:40 AM82 °FPassing clouds.No wind84%29.74 "Hg4 mi
3:10 AM82 °FPassing clouds.No wind84%29.74 "Hg4 mi
2:40 AM82 °FPassing clouds.No wind84%29.74 "Hg4 mi
2:10 AM84 °FPassing clouds.No wind84%29.74 "Hg4 mi
1:40 AM84 °FPassing clouds.No wind84%29.74 "Hg4 mi
1:10 AM84 °FPassing clouds.No wind84%29.74 "Hg4 mi
12:40 AM84 °FPassing clouds.2 mph84%29.77 "Hg4 mi
12:10 AM86 °FPassing clouds.5 mph79%29.77 "Hg4 mi
11:40 PM
Tue, May 5
86 °FPassing clouds.6 mph75%29.77 "Hg4 mi
11:10 PM86 °FPassing clouds.7 mph79%29.77 "Hg4 mi
Weather by CustomWeather, © 2015

See weather overviewHow to use our weather pages